Radioactive Concentration measured by Seawater Radiation Monitor near Fukushima Daiichi Nuclear Power Station
Date,Time,Cs137(Bq/L),Cs134(Bq/L),Total β(Bq/L)
2019/02/12,00:00,0.29,ND,14
2019/02/12,00:10,0.30,ND,13
2019/02/12,00:20,0.31,ND,12
2019/02/12,00:30,0.38,ND,13
2019/02/12,00:40,0.30,ND,14
2019/02/12,00:50,0.37,ND,15
2019/02/12,01:00,0.38,ND,14
2019/02/12,01:10,0.39,ND,12
2019/02/12,01:20,0.41,ND,12
2019/02/12,01:30,0.34,ND,14
2019/02/12,01:40,0.43,ND,12
2019/02/12,01:50,0.47,ND,12
2019/02/12,02:00,0.47,ND,11
2019/02/12,02:10,0.47,ND,12
2019/02/12,02:20,0.47,ND,14
2019/02/12,02:30,0.47,ND,13
2019/02/12,02:40,0.47,ND,13
2019/02/12,02:50,0.46,ND,14
2019/02/12,03:00,0.45,ND,17
2019/02/12,03:10,0.44,ND,17
2019/02/12,03:20,0.45,ND,18
2019/02/12,03:30,0.44,ND,19
2019/02/12,03:40,0.44,ND,23
2019/02/12,03:50,0.42,ND,20
2019/02/12,04:00,0.42,ND,18
2019/02/12,04:10,0.42,ND,18
2019/02/12,04:20,0.39,ND,16
2019/02/12,04:30,0.38,ND,15
2019/02/12,04:40,0.36,ND,11
2019/02/12,04:50,0.32,ND,14
2019/02/12,05:00,0.33,ND,12
2019/02/12,05:10,0.38,ND,14
2019/02/12,05:20,0.39,ND,13
2019/02/12,05:30,0.35,ND,12
2019/02/12,05:40,0.40,ND,15
2019/02/12,05:50,0.41,ND,14
2019/02/12,06:00,0.39,ND,16
2019/02/12,06:10,0.39,ND,14
2019/02/12,06:20,0.38,ND,14
2019/02/12,06:30,0.37,ND,17
2019/02/12,06:40,0.37,ND,16
2019/02/12,06:50,0.33,ND,18
2019/02/12,07:00,0.34,ND,17
2019/02/12,07:10,0.33,ND,18
2019/02/12,07:20,0.30,ND,18
2019/02/12,07:30,0.32,ND,17
2019/02/12,07:40,0.33,ND,16
2019/02/12,07:50,0.40,ND,14
2019/02/12,08:00,0.39,ND,15
2019/02/12,08:10,0.38,ND,15
2019/02/12,08:20,0.38,ND,15
2019/02/12,08:30,0.37,ND,14
2019/02/12,08:40,0.27,ND,15
2019/02/12,08:50,0.24,ND,17
2019/02/12,09:00,0.24,ND,18
2019/02/12,09:10,0.32,ND,17
2019/02/12,09:20,0.31,ND,18
2019/02/12,09:30,0.30,ND,17
2019/02/12,09:40,0.31,ND,17
2019/02/12,09:50,0.32,ND,17
2019/02/12,10:00,0.32,ND,17
2019/02/12,10:10,0.32,ND,17
2019/02/12,10:20,0.32,ND,16
2019/02/12,10:30,0.33,ND,14
2019/02/12,10:40,0.32,ND,13
2019/02/12,10:50,0.34,ND,11
2019/02/12,11:00,0.34,ND,9.3
2019/02/12,11:10,0.37,ND,10
2019/02/12,11:20,0.36,ND,11
2019/02/12,11:30,0.36,ND,15
2019/02/12,11:40,0.37,ND,15
2019/02/12,11:50,0.38,ND,15
2019/02/12,12:00,0.38,ND,18
2019/02/12,12:10,0.37,ND,18
2019/02/12,12:20,0.38,ND,18
2019/02/12,12:30,0.38,ND,17
2019/02/12,12:40,0.36,ND,15
2019/02/12,12:50,0.36,ND,14
2019/02/12,13:00,0.38,ND,11
2019/02/12,13:10,0.38,ND,ND
2019/02/12,13:20,0.30,ND,ND
2019/02/12,13:30,0.39,ND,ND
2019/02/12,13:40,0.32,ND,9.0
2019/02/12,13:50,0.33,ND,10
2019/02/12,14:00,0.42,ND,ND
2019/02/12,14:10,0.42,ND,13
2019/02/12,14:20,0.43,ND,15
2019/02/12,14:30,0.44,ND,13
2019/02/12,14:40,0.45,ND,13
2019/02/12,14:50,0.42,ND,13
2019/02/12,15:00,0.42,ND,16
2019/02/12,15:10,0.38,ND,10
2019/02/12,15:20,0.39,ND,9.9
2019/02/12,15:30,0.38,ND,14
2019/02/12,15:40,0.40,ND,13
2019/02/12,15:50,0.41,ND,13
2019/02/12,16:00,0.31,ND,17
2019/02/12,16:10,0.30,ND,17
2019/02/12,16:20,0.30,ND,18
2019/02/12,16:30,0.37,ND,15
2019/02/12,16:40,0.35,ND,13
2019/02/12,16:50,0.34,ND,13
2019/02/12,17:00,0.33,ND,11
2019/02/12,17:10,0.34,ND,12
2019/02/12,17:20,0.34,ND,12
2019/02/12,17:30,0.35,ND,11
2019/02/12,17:40,0.34,ND,13
2019/02/12,17:50,0.33,ND,14
2019/02/12,18:00,0.25,ND,10
2019/02/12,18:10,0.32,ND,12
2019/02/12,18:20,0.23,ND,9.7
2019/02/12,18:30,0.25,ND,11
2019/02/12,18:40,0.34,ND,12
2019/02/12,18:50,0.26,ND,13
2019/02/12,19:00,0.25,ND,14
2019/02/12,19:10,0.25,ND,14
2019/02/12,19:20,0.26,ND,13
2019/02/12,19:30,0.26,ND,13
2019/02/12,19:40,0.25,ND,12
2019/02/12,19:50,0.33,ND,10
2019/02/12,20:00,0.34,ND,13
2019/02/12,20:10,0.35,ND,9.6
2019/02/12,20:20,0.34,ND,12
2019/02/12,20:30,0.32,ND,13
2019/02/12,20:40,0.31,ND,14
2019/02/12,20:50,0.33,ND,13
2019/02/12,21:00,0.34,ND,14
2019/02/12,21:10,0.33,ND,17
2019/02/12,21:20,0.33,ND,17
2019/02/12,21:30,0.32,ND,16
2019/02/12,21:40,0.34,ND,16
2019/02/12,21:50,0.32,ND,17
2019/02/12,22:00,0.31,ND,16
2019/02/12,22:10,0.24,ND,18
2019/02/12,22:20,0.32,ND,18
2019/02/12,22:30,0.32,ND,16
2019/02/12,22:40,0.33,ND,16
2019/02/12,22:50,0.33,ND,16
2019/02/12,23:00,0.32,ND,14
2019/02/12,23:10,0.30,ND,14
2019/02/12,23:20,0.30,ND,14
2019/02/12,23:30,0.32,ND,18
2019/02/12,23:40,0.31,ND,19
2019/02/12,23:50,0.31,ND,20
